Bismarck, ND

11:56 PM CDT on July 20, 2017 (GMT -0500)
Bismarck Municipal

Weather History for KBIS - March, 2012

Change the Weather History Date:

Sunday, March 4, 2012

  Actual Average Record
Temperature  
Mean Temperature 27 °F 24 °F  
Max Temperature 35 °F 34 °F 69 °F (2000)
Min Temperature 19 °F 15 °F -33 °F (1891)
Degree Days  
Heating Degree Days 38 41  
Month to date heating degree days 162 165  
Since 1 July heating degree days 5661 6596  
Cooling Degree Days 0 0  
Month to date cooling degree days 0 0  
Year to date cooling degree days 0 0  
Moisture  
Dew Point 22 °F    
Average Humidity 77    
Maximum Humidity 92    
Minimum Humidity 61    
Precipitation  
Precipitation T in 0.02 in 0.48 in (1875)
Month to date precipitation 0.01 0.09  
Year to date precipitation 0.79 1.03  
Snow  
Snow T in 0.30 in 5.70 in (1995)
Month to date snowfall 0.2 1.2  
Since 1 July snowfall 13.3 38.7  
Snow Depth 3.00 in    
Sea Level Pressure  
Sea Level Pressure 29.92 in    
Wind  
Wind Speed 11 mph (NW)    
Max Wind Speed 29 mph    
Max Gust Speed 37 mph    
Visibility 9 miles    
Events Snow    
T = Trace of Precipitation, MM = Missing Value Source: NWS Daily Summary

Daily Weather History Graph

Daily Weather History Graph

Search for Another Location

Airport or City:

Trip Planner

Search our weather history database for the weather conditions in past years. The results will help you decide how hot, cold, wet, or windy it might be!

Date:

Astronomy

Mar. 04, 2012 Rise Set
Actual Time 7:16 AM CST 6:33 PM CST
Civil Twilight 6:45 AM CST 7:04 PM CST
Nautical Twilight 6:10 AM CST 7:39 PM CST
Astronomical Twilight 5:35 AM CST 8:14 PM CST
Moon 2:36 PM CST (3/4) 4:50 AM CST (3/4)
Length of Visible Light 12h 18m
Length of Day
11h 17m
Waxing Gibbous, 84% of the Moon is Illuminated
Mar 4
Waxing Gibbous
Mar 8
Full
Mar 14
Last Quarter
Mar 22
New
Mar 30
First Quarter

Hourly Weather History & Observations

Time (CST) Temp. Windchill Dew Point Humidity Pressure Visibility Wind Dir Wind Speed Gust Speed Precip Events Conditions
12:52 AM 19.9 °F 13.4 °F 17.1 °F 89% 29.81 in 10.0 mi SE 4.6 mph - 0.00 in   Overcast
1:09 AM 21.2 °F 14.9 °F 17.6 °F 86% 29.73 in 10.0 mi SE 4.6 mph - N/A   Overcast
1:49 AM 21.2 °F 13.6 °F 17.6 °F 86% 29.73 in 10.0 mi ESE 5.8 mph - N/A   Overcast
1:52 AM 21.0 °F 13.4 °F 18.0 °F 88% 29.81 in 10.0 mi ESE 5.8 mph - N/A   Overcast
2:52 AM 21.9 °F - 19.0 °F 89% 29.79 in 4.0 mi Calm Calm - 0.00 in Snow Light Snow
3:06 AM 21.2 °F - 19.4 °F 93% 29.72 in 5.0 mi Calm Calm - 0.00 in Snow Light Snow
3:32 AM 23.0 °F 18.4 °F 19.4 °F 86% 29.70 in 7.0 mi ESE 3.5 mph - 0.00 in Snow Light Snow
3:52 AM 23.0 °F 18.4 °F 21.0 °F 92% 29.78 in 10.0 mi ESE 3.5 mph - 0.00 in   Overcast
4:39 AM 24.8 °F - 21.2 °F 86% 29.69 in 10.0 mi Calm Calm - N/A   Overcast
4:52 AM 25.0 °F - 21.9 °F 88% 29.77 in 10.0 mi Calm Calm - N/A   Overcast
5:01 AM 24.8 °F - 21.2 °F 86% 29.69 in 10.0 mi Calm Calm - N/A   Overcast
5:32 AM 24.8 °F - 21.2 °F 86% 29.70 in 10.0 mi Calm Calm - N/A   Overcast
5:52 AM 25.0 °F - 23.0 °F 92% 29.78 in 10.0 mi Calm Calm - N/A   Overcast
6:04 AM 26.6 °F 22.6 °F 23.0 °F 86% 29.72 in 10.0 mi WNW 3.5 mph - N/A   Overcast
6:52 AM 30.0 °F 18.7 °F 27.0 °F 88% 29.84 in 10.0 mi NW 16.1 mph 19.6 mph N/A   Mostly Cloudy
7:52 AM 30.9 °F 18.1 °F 26.1 °F 82% 29.88 in 10.0 mi NW 21.9 mph 35.7 mph N/A   Mostly Cloudy
8:24 AM 28.4 °F 15.1 °F 24.8 °F 86% 29.85 in 7.0 mi NNW 20.7 mph 35.7 mph 0.00 in   Mostly Cloudy
8:39 AM 28.4 °F 15.4 °F 24.8 °F 86% 29.86 in 8.0 mi NNW 19.6 mph 32.2 mph 0.00 in   Overcast
8:52 AM 28.9 °F 15.8 °F 24.1 °F 82% 29.95 in 10.0 mi NNW 20.7 mph 31.1 mph 0.00 in   Mostly Cloudy
9:52 AM 30.0 °F 17.2 °F 23.0 °F 75% 29.99 in 10.0 mi NW 20.7 mph 25.3 mph N/A   Mostly Cloudy
10:52 AM 30.9 °F 17.8 °F 24.1 °F 76% 30.04 in 10.0 mi NNW 23.0 mph 29.9 mph N/A   Mostly Cloudy
11:43 AM 32.0 °F 21.2 °F 24.8 °F 75% 29.98 in 10.0 mi NW 16.1 mph - N/A   Overcast
11:52 AM 33.1 °F 21.2 °F 24.1 °F 70% 30.06 in 10.0 mi NW 20.7 mph 24.2 mph N/A   Overcast
12:16 PM 33.8 °F 22.8 °F 24.8 °F 70% 30.00 in 10.0 mi NW 18.4 mph 27.6 mph N/A   Overcast
12:52 PM 33.1 °F 21.2 °F 24.1 °F 70% 30.09 in 10.0 mi NW 20.7 mph 27.6 mph N/A   Overcast
1:52 PM 34.0 °F 22.4 °F 25.0 °F 70% 30.09 in 10.0 mi NW 20.7 mph 29.9 mph N/A   Overcast
2:38 PM 33.8 °F 24.3 °F 24.8 °F 70% 30.03 in 10.0 mi NW 13.8 mph 25.3 mph N/A   Overcast
2:52 PM 34.0 °F 21.8 °F 25.0 °F 70% 30.10 in 10.0 mi NW 23.0 mph 27.6 mph N/A   Overcast
3:52 PM 34.0 °F 23.0 °F 23.0 °F 64% 30.11 in 10.0 mi NW 18.4 mph - N/A   Overcast
4:52 PM 34.0 °F 26.0 °F 21.9 °F 61% 30.11 in 10.0 mi NNW 10.4 mph 21.9 mph N/A   Scattered Clouds
5:52 PM 33.1 °F 23.9 °F 21.9 °F 64% 30.12 in 10.0 mi NW 12.7 mph - N/A   Clear
6:52 PM 30.0 °F 24.1 °F 21.9 °F 72% 30.12 in 10.0 mi WNW 5.8 mph - N/A   Clear
7:52 PM 27.0 °F 23.0 °F 21.0 °F 78% 30.12 in 10.0 mi SW 3.5 mph - N/A   Clear
8:52 PM 24.1 °F 19.7 °F 19.9 °F 84% 30.11 in 10.0 mi WSW 3.5 mph - N/A   Clear
9:52 PM 19.9 °F - 18.0 °F 92% 30.11 in 10.0 mi Calm Calm - N/A   Partly Cloudy
10:52 PM 21.0 °F 16.2 °F 18.0 °F 88% 30.09 in 9.0 mi SSE 3.5 mph - N/A   Clear
11:52 PM 21.0 °F 16.2 °F 18.0 °F 88% 30.06 in 9.0 mi ESE 3.5 mph - N/A   Clear